Location: Byszew
(52.1813°N, 19.2693°E)
Time: 14:40:19
(UTC+00:00)

Okean 3 - Pass Details

Date: 03 March 2021
Orbit: 577 x 600 km, 82.5° (Epoch: 12 April)

Event Time Altitude Azimuth Distance (km) Brightness Sun altitude
Rises 18:34:57 0° 348° (NNW) 2,832 7.3 -20.3°
Reaches altitude 10° 18:37:09 10° 348° (NNW) 1,930 6.4 -20.7°
Maximum altitude 18:41:25 84° 263° (W) 604 3.4 -21.3°
Enters shadow 18:43:04 37° 176° (S) 931 4.2 -21.5°
